User: anonymous   Login
Location: Sevilla
(37.3933°N, 5.9839°W)
Time: 01:28:32
(UTC+02:00)
Language:

Tiros 1 - Orbit

View from above orbital plane
View from above orbital plane
View from above satellite
View from above satellite

Ground track
Ground track

The orbit data is extracted from the following two-line orbital elements,

1 00029U 60002B   24167.57820412  .00000935  00000-0  16260-3 0  9993
2 00029  48.3789 256.4879 0023357 359.1641   0.9229 14.76401252433927
Epoch (UTC): 15 June 2024 13:52:36
Eccentricity: 0.0023357
inclination: 48.3789°
perigee height: 624 km
apogee height: 657 km
right ascension of ascending node: 256.4879°
argument of perigee: 359.1641°
revolutions per day: 14.76401252
mean anomaly at epoch: 0.9229°
orbit number at epoch: 43392

The dashed part of the orbit path shows where the satellite is in the earth's shadow,  

DLR